Location: Seattle
(47.6064°N, 122.3308°W)
Time: 01:40:12
(UTC-08:00)

Tiros 1 - Pass Details

Date: 02 December 2020
Orbit: 630 x 663 km, 48.4° (Epoch: 28 January)

Event Time Altitude Azimuth Distance (km) Brightness Sun altitude
Rises 13:11:39 0° 204° (SSW) 2,979 12.2 18.4°
Reaches altitude 10° 13:14:27 10° 188° (S) 2,073 11.9 18.2°
Maximum altitude 13:18:02 21° 140° (SE) 1,475 9.6 18.1°
Drops below altitude 10° 13:21:37 10° 91° (E) 2,080 9.6 17.8°
Sets 13:24:25 0° 76° (ENE) 2,994 10.2 17.7°
